www.pogodaiklimat.ru

АРХИВ ПОГОДЫ в Филадельфии

Время (UTC), дата Ветер
(напр.,м/с)
 
Видим.   Явления Облачность Т
(С)
Тd
(С)
f
(%)
Тe
(С)
Тes
(С)
Комфортность

P
(гПа)

Po
(гПа)
Тmin
(С)
Tmax
(С)
R
(мм)
SD
(см)
02:54 17.08 Ю  16 км    5/0 7200 м
[верхняя] 
+25.6  +22.2  82  +33  +33  очень
душно 
1019.3  1018.9         
03:54 17.08 Ю  16 км    5/0 7200 м
[верхняя] 
+26.0  +22.0  79  +34  +34  очень
душно 
1019.3  1018.9         
04:54 17.08 ЮЗ  16 км    2/0 7200 м
[верхняя] 
+25.0  +22.0  83  +32  +32  очень
душно 
1019.2  1018.9  +24.4       
05:54 17.08 ЮЗ  16 км    8/0 8400 м
[верхняя] 
+25.0  +22.2  84  +32  +32  очень
душно 
1019.1  1018.9         
06:54 17.08 Ю  16 км    8/0 8400 м
[верхняя] 
+24.4  +22.2  88  +32  +32  очень
душно 
1019.0  1018.6         
07:54 17.08 Ю  16 км    2/0 8400 м
[верхняя] 
+23.9  +22.2  90  +31  +31  очень
душно 
1018.7  1018.6         
08:54 17.08 Ю  16 км    10/0 6000 м
[средняя верхняя] 
+23.0  +22.0  94  +31  +31  очень
душно 
1018.7  1018.3         
09:54 17.08 Ю  13 км    8/0 5100 м
[средняя верхняя] 
+23.9  +22.8  94  +32  +32  очень
душно 
1018.7  1018.3         
10:54 17.08 Ю  13 км    8/0 5100 м
[средняя верхняя] 
+25.0  +23.0  89  +33  +34  очень
душно 
1018.6  1018.3  +23.3  +25.0     
11:54 17.08 Ю  16 км    8/0 5400 м
[средняя верхняя] 
+27.0  +24.0  84  +37  +38  очень
душно 
1018.6  1018.3         
12:54 17.08 штиль  16 км    10/0 5400 м
[средняя верхняя] 
+27.8  +23.9  79  +38  +41  очень
душно 
1018.2  1017.9         
13:54 17.08 Ю  16 км    10/0 3600 м
[средняя верхняя] 
+29.0  +24.0  74  +40  +45  очень
душно 
1018.1  1017.9         
14:54 17.08 ЮЗ  16 км    8/2 840 м
[средняя верхняя] 
+30.6  +23.3  65  +41  +46  опасность
перегрева 
  1017.3         
15:54 17.08 Ю  16 км    8/2 960 м
[средняя верхняя] 
+31.7  +22.2  57  +41  +45  опасность
перегрева 
  1016.6         
16:54 17.08 Ю  6
{10} 
16 км    8/2 1320 м
[средняя верхняя] 
+32.8  +22.2  54  +42  +44  опасность
перегрева 
  1015.6  +25.0  +32.8     
17:54 17.08 Ю  16 км    8/2 1320 м
[средняя верхняя] 
+33.0  +23.0  56  +43  +46  опасность
перегрева 
1015.3  1015.2         
18:54 17.08 Ю  16 км    8/5 1290 м
[средняя верхняя] 
+32.0  +23.0  59  +42  +44  опасность
перегрева 
1014.9  1014.5         
19:54 17.08 Ю  7
{10} 
16 км    8/5 1260 м
[средняя верхняя] 
+32.0  +22.0  56  +41  +42  опасность
перегрева 
1014.3  1014.2         
20:54 17.08 Ю  16 км    8/2 1200 м
[средняя верхняя] 
+31.0  +22.0  59  +40  +41  очень
душно 
1014.1  1013.9         
21:54 17.08 Ю  16 км    8/2 1200 м
[средняя верхняя] 
+30.0  +23.0  66  +40  +41  очень
душно 
1013.6  1013.2         
22:54 17.08 Ю  16 км    10/2 1200 м
[средняя верхняя] 
+29.4  +22.8  68  +39  +39  очень
душно 
  1013.5  +29.4  +33.9     
23:54 17.08 Ю  16 км    10/0 6300 м
[верхняя] 
+28.9  +22.8  70  +38  +38  очень
душно 
1013.7  1013.5         
00:54 18.08 ЮЗ  16 км    10/0 7500 м
[верхняя] 
+28.3  +22.8  72  +38  +38  очень
душно 
1013.8  1013.5         
01:54 18.08 ЮЗ  16 км    10/0 5400 м
[средняя верхняя] 
+28.0  +23.0  74  +37  +37  очень
душно 
1013.8  1013.5         
02:54 18.08 ЮЗ  16 км    8/0 5400 м
[средняя верхняя] 
+27.8  +23.3  77  +38  +38  очень
душно 
1013.4  1013.2         
03:54 18.08 З  16 км    8/8 1410 м
[верхняя] 
+27.2  +23.9  82  +37  +37  очень
душно 
  1013.5         
04:09 18.08 З  14 км  гроза со слабым дождем  10/10 600 м  +26.7  +24.4  87  +37  +37  очень
душно 
  1013.9         
04:18 18.08 З  12
{14} 
10 км  гроза со слабым дождем  10/8 600 м
[средняя] 
+25.6  +22.2  82  +33  +33  очень
душно 
  1014.5         
04:39 18.08 З  6 км  гроза с дождем, дымка  10/8 630 м
[средняя] 
+24.0  +22.0  89  +31  +31  очень
душно 
           
04:49 18.08 З  11 км  гроза, слабый дождь  10/8 630 м
[средняя] 
+24.0  +22.0  89  +31  +31  очень
душно 
           
04:54 18.08 З  13 км  слабый дождь  10/5 630 м
[средняя] 
+24.4  +22.2  88  +32  +32  очень
душно 
1013.9    +23.9  +29.4  2.8   
04:58 18.08 З  13 км  гроза со слабым дождем  10/5 1500 м
[средняя] 
+24.4  +22.2  88  +32  +32  очень
душно 
  1013.5         
05:03 18.08 З  5 км  гроза с сильным дождем, дымка  10/5 1500 м
[средняя] 
+23.9  +22.2  90  +31  +31  очень
душно 
  1013.5         
05:11 18.08 ЮЗ  11 км  гроза со слабым дождем  10/8 1440 м
[средняя] 
+23.3  +22.2  94  +32  +32  очень
душно 
           
05:14 18.08 ЮЗ  2 км  гроза с сильным дождем, дымка  10/8 1440 м
[средняя] 
                       
05:21 18.08 З  6 км  гроза со слабым дождем, дымка  10/8 1230 м
[средняя] 
+23.0  +22.0  94  +31  +31  очень
душно 
           
05:29 18.08 З  11 км  гроза со слабым дождем  10/5 1290 м
[средняя] 
+23.3  +22.2  94  +32  +32  очень
душно 
  1013.2         
05:47 18.08 ЮЗ  16 км  гроза со слабым дождем  10/5 1200 м
[средняя] 
+23.9  +22.2  90  +31  +31  очень
душно 
  1012.9         
05:54 18.08 З  16 км  гроза со слабым дождем  10/2 1500 м
[средняя] 
+23.9  +21.7  88  +31  +31  очень
душно 
1013.1  1012.9         
06:06 18.08 ЮЗ  16 км  слабый дождь  10/2 1050 м
[средняя верхняя] 
+23.3  +21.7  91  +32  +32  очень
душно 
  1012.5         
06:54 18.08 ЮЗ  16 км    8/0 2100 м
[средняя верхняя] 
+23.3  +22.2  94  +32  +32  очень
душно 
  1012.5         
07:54 18.08 ЮЗ  16 км    8/0 3300 м
[средняя верхняя] 
+23.0  +22.0  94  +31  +31  очень
душно 
1013.0  1012.9         
08:54 18.08 З  16 км    10/0 3300 м
[средняя верхняя] 
+23.0  +22.0  94  +31  +31  очень
душно 
1012.4  1012.2         
09:54 18.08 ЮЗ  16 км    10/0 2100 м
[средняя верхняя] 
+23.3  +22.8  97  +32  +32  очень
душно 
1012.2  1011.8         
10:54 18.08 ЮЗ  16 км    10/8 1950 м
[средняя верхняя] 
+23.3  +22.8  97  +32  +32  очень
душно 
1012.4  1012.2  +22.8  +24.4     
11:54 18.08 З  16 км    10/2 1800 м
[средняя верхняя] 
+24.4  +22.8  91  +32  +33  очень
душно 
  1011.8         
12:42 18.08 З  16 км    8/5 150 м
[средняя верхняя] 
+25.0  +22.8  88  +33  +34  очень
душно 
  1011.8         
12:54 18.08 ЮЗ  16 км    8/5 150 м
[средняя верхняя] 
+25.6  +22.2  82  +33  +34  очень
душно 
1012.0  1011.8         

 

Местоположение метеостанции Philadelphia International Airport: широта 39.8733 долгота -75.2268 высота над уровнем моря 2 м.

В архиве по умолчанию представлена погода в Филадельфии за последние 1-2 суток. Обновление информации о фактической погоде в базе происходит ежечасно! Архивные данные за месяц целиком и за предыдущие месяцы Вы можете получить, выбрав интересующий диапазон дат из раскрывающегося списка и нажав кнопку "Ввод!".

Внимание! Архив погоды МЕТАР в базе сайта в настоящее время начинается c 1 января 2013 г. Нет смысла пытаться выбрать более раннюю дату.

Внимание! Время в таблицах - всемирное. Для получения местного времени необходимо прибавить поправку, которая в Филадельфии равна -5 ч.

Ветер - указаны скорость ветра в м/с и направление, откуда дует ветер: С - северный, СВ - северо-восточный, В - восточный, ЮВ - юго-восточный, Ю - южный, ЮЗ - юго-западный, З - западный, СЗ - северо-западный.
Видимость - горизонтальная дальность видимости в метрах или километрах. При видимости от 1 до 10 км при отсутствии осадков обычно наблюдается дымка, при ухудшении видимости до 1 км и менее - туман. В сухую погоду видимость может ухудшаться дымом, пылью или мглою.
Атмосферные явления - указаны явления, наблюдавшиеся в указанный момент времени.
Облачность - указаны через наклонную черту верхняя и нижняя облачность в баллах и высота нижней границы облаков в метрах. Внимание: облачность, как и прочие метеорологические величины в США измеряются автоматическими метеостанциями. Указанные значения в баллах носят условный характер и показывают процент времени, в течение которого, в среднем, лазерный луч высотомера отражался от облаков обратно.
T - Температура воздуха - температура, измеренная на высоте 2 м над землей.
Td - Температура точки росы - температура, при понижении до которой содержащийся в воздухе водяной пар достигнет насыщения.
f - Относительная влажность воздуха - влажноcть воздуха, измеренная на высоте 2 м над землей.
Te - Эффективная температура - температура, которую ощущает одетый по сезону человек в тени. Характеристика душности погоды. При расчете учитывается влияние влажности воздуха и скорости ветра на теплоощущения человека.
Tes - Эффективная температура на солнце - температура, которую ощущает человек, с поправкой на солнечный нагрев. Характеристика знойности погоды. Зависит от высоты солнца над горизонтом, облачности и скорости ветра. Ночью, в пасмурную погоду, а также при ветре 12 м/с и более поправка равна нулю.
P - Атмосферное давление - приведенное к уровню моря атмосферное давление.
Po - Атмосферное давление - измеренное на уровне метеостанции атмосферное давление.
Tmin - Минимальная температура - минимум температуры воздуха на высоте 2 м над землей.
Tmax - Максимальная температура - максимум температуры воздуха на высоте 2 м над землей.
R - Количество осадков - Количество выпавших осадков за 3 или 6 часов, мм.
SD - Снежный покров - Высота снежного покрова, см.